Location: Brno
(49.2000°N, 16.6330°E)
Time: 11:12:43
(UTC+02:00)

Vanguard 3 - Pass Details

Date: 30 July 2021
Orbit: 510 x 3260 km, 33.3° (Epoch: 18 September)

Event Time Altitude Azimuth Distance (km) Brightness Sun altitude
Rises 22:32:42 0° 263° (W) 6,741 12.2 -15.0°
Reaches altitude 10° 22:37:12 10° 258° (WSW) 5,940 11.8 -15.4°
Maximum altitude 22:54:45 44° 195° (SSW) 3,996 10.3 -17.0°
Enters shadow 23:06:54 21° 139° (SE) 4,836 10.4 -18.0°
